Time,TemperatureF,DewpointF,PressureIn,WindDirection,WindDirectionDegrees,WindSpeedMPH,WindSpeedGustMPH,Humidity,HourlyPrecipIn,Conditions,Clouds,dailyrainin,SoftwareType,DateUTC
2014-10-02 00:04:00,73.7,68.6,29.71,South,172,0.0,0.0,84,0.00,,,0.00,VWS V14.01,2014-10-02 05:04:00,
2014-10-02 00:14:00,73.7,68.6,29.71,ESE,122,1.0,0.0,84,0.00,,,0.00,VWS V14.01,2014-10-02 05:14:00,
2014-10-02 00:19:00,73.8,68.7,29.71,ESE,122,0.0,0.0,84,0.00,,,0.00,VWS V14.01,2014-10-02 05:19:00,
2014-10-02 00:24:00,73.8,68.7,29.71,ESE,122,1.0,0.0,84,0.00,,,0.00,VWS V14.01,2014-10-02 05:24:00,
2014-10-02 00:29:00,73.9,68.8,29.71,ESE,121,2.0,0.0,84,0.00,,,0.00,VWS V14.01,2014-10-02 05:29:00,
2014-10-02 00:34:00,74.1,68.6,29.71,SSE,151,1.0,0.0,83,0.00,,,0.00,VWS V14.01,2014-10-02 05:34:00,
2014-10-02 00:39:00,74.2,68.7,29.71,ENE,77,0.0,0.0,83,0.00,,,0.00,VWS V14.01,2014-10-02 05:39:00,
2014-10-02 00:44:00,74.2,68.7,29.71,ESE,119,2.0,0.0,83,0.00,,,0.00,VWS V14.01,2014-10-02 05:44:00,
2014-10-02 00:49:00,74.3,68.8,29.71,SSE,153,1.0,0.0,83,0.00,,,0.00,VWS V14.01,2014-10-02 05:49:00,
2014-10-02 00:54:00,74.5,69.0,29.71,South,178,1.0,0.0,83,0.00,,,0.00,VWS V14.01,2014-10-02 05:54:00,
2014-10-02 01:04:00,74.6,69.1,29.71,South,189,1.0,0.0,83,0.00,,,0.00,VWS V14.01,2014-10-02 06:04:00,
2014-10-02 01:09:00,74.7,69.2,29.71,SSE,167,3.0,0.0,83,0.00,,,0.00,VWS V14.01,2014-10-02 06:09:00,
2014-10-02 01:14:00,74.8,68.9,29.71,ESE,109,5.0,0.0,82,0.00,,,0.00,VWS V14.01,2014-10-02 06:14:00,
2014-10-02 01:19:00,74.8,68.9,29.71,SE,142,0.0,0.0,82,0.00,,,0.00,VWS V14.01,2014-10-02 06:19:00,
2014-10-02 01:24:00,74.7,69.2,29.71,South,183,0.0,0.0,83,0.00,,,0.00,VWS V14.01,2014-10-02 06:24:00,
2014-10-02 01:29:00,74.7,69.2,29.71,SSE,155,3.0,0.0,83,0.00,,,0.00,VWS V14.01,2014-10-02 06:29:00,
2014-10-02 01:34:00,74.7,69.2,29.70,SSE,156,1.0,0.0,83,0.00,,,0.00,VWS V14.01,2014-10-02 06:34:00,
2014-10-02 01:39:00,74.8,69.3,29.70,South,178,2.0,0.0,83,0.00,,,0.00,VWS V14.01,2014-10-02 06:39:00,
2014-10-02 01:44:00,74.8,68.9,29.70,SSE,153,1.0,0.0,82,0.00,,,0.00,VWS V14.01,2014-10-02 06:44:00,
2014-10-02 01:49:00,74.8,68.9,29.69,South,171,1.0,0.0,82,0.00,,,0.00,VWS V14.01,2014-10-02 06:49:00,
2014-10-02 01:54:00,74.8,69.3,29.69,SSE,159,0.0,0.0,83,0.00,,,0.00,VWS V14.01,2014-10-02 06:54:00,
2014-10-02 02:04:00,74.6,69.1,29.69,South,190,1.0,0.0,83,0.00,,,0.00,VWS V14.01,2014-10-02 07:04:00,
2014-10-02 02:09:00,74.5,69.0,29.69,SSW,205,1.0,0.0,83,0.00,,,0.00,VWS V14.01,2014-10-02 07:09:00,
2014-10-02 02:14:00,74.4,68.9,29.69,SSE,150,2.0,0.0,83,0.00,,,0.00,VWS V14.01,2014-10-02 07:14:00,
2014-10-02 02:19:00,74.3,68.8,29.68,SE,134,0.0,0.0,83,0.00,,,0.00,VWS V14.01,2014-10-02 07:19:00,
2014-10-02 02:24:00,74.2,69.1,29.68,SSE,149,1.0,0.0,84,0.00,,,0.00,VWS V14.01,2014-10-02 07:24:00,
2014-10-02 02:29:00,74.1,69.0,29.68,South,176,0.0,0.0,84,0.00,,,0.00,VWS V14.01,2014-10-02 07:29:00,
2014-10-02 02:34:00,73.9,68.8,29.68,SW,215,4.0,0.0,84,0.00,,,0.00,VWS V14.01,2014-10-02 07:34:00,
2014-10-02 02:39:00,74.0,68.9,29.68,SSE,159,2.0,0.0,84,0.00,,,0.00,VWS V14.01,2014-10-02 07:39:00,
2014-10-02 02:44:00,74.0,68.9,29.68,SW,214,2.0,0.0,84,0.00,,,0.00,VWS V14.01,2014-10-02 07:44:00,
2014-10-02 02:49:00,73.9,69.1,29.68,SW,215,0.0,0.0,85,0.00,,,0.00,VWS V14.01,2014-10-02 07:49:00,
2014-10-02 02:54:00,73.9,69.1,29.68,SSE,155,0.0,0.0,85,0.00,,,0.00,VWS V14.01,2014-10-02 07:54:00,
2014-10-02 02:59:00,74.0,69.2,29.68,South,174,0.0,0.0,85,0.00,,,0.00,VWS V14.01,2014-10-02 07:59:00,
2014-10-02 03:04:00,73.8,69.0,29.68,ESE,104,0.0,0.0,85,0.00,,,0.00,VWS V14.01,2014-10-02 08:04:00,
2014-10-02 03:09:00,73.8,69.0,29.68,ESE,117,0.0,0.0,85,0.00,,,0.00,VWS V14.01,2014-10-02 08:09:00,
2014-10-02 03:14:00,73.8,69.0,29.68,SSE,155,0.0,0.0,85,0.00,,,0.00,VWS V14.01,2014-10-02 08:14:00,
2014-10-02 03:19:00,73.7,68.9,29.68,SSE,155,0.0,0.0,85,0.00,,,0.00,VWS V14.01,2014-10-02 08:19:00,
2014-10-02 03:24:00,73.6,68.8,29.68,SSE,154,1.0,0.0,85,0.00,,,0.00,VWS V14.01,2014-10-02 08:24:00,
2014-10-02 03:29:00,73.6,68.8,29.68,SSE,157,0.0,0.0,85,0.00,,,0.00,VWS V14.01,2014-10-02 08:29:00,
2014-10-02 03:34:00,73.5,68.7,29.68,South,188,0.0,0.0,85,0.00,,,0.00,VWS V14.01,2014-10-02 08:34:00,
2014-10-02 03:39:00,73.5,68.7,29.68,SSE,166,3.0,0.0,85,0.00,,,0.00,VWS V14.01,2014-10-02 08:39:00,
2014-10-02 03:44:00,73.4,69.0,29.68,ESE,121,1.0,0.0,86,0.00,,,0.00,VWS V14.01,2014-10-02 08:44:00,
2014-10-02 03:49:00,73.4,69.0,29.69,SSE,163,0.0,0.0,86,0.00,,,0.00,VWS V14.01,2014-10-02 08:49:00,
2014-10-02 03:54:00,73.3,68.9,29.69,SE,131,1.0,0.0,86,0.00,,,0.00,VWS V14.01,2014-10-02 08:54:00,
2014-10-02 03:59:00,73.2,68.8,29.69,SE,134,2.0,0.0,86,0.00,,,0.00,VWS V14.01,2014-10-02 08:59:00,
2014-10-02 04:04:00,73.1,68.7,29.67,ENE,67,1.0,0.0,86,0.00,,,0.00,VWS V14.01,2014-10-02 09:04:00,
2014-10-02 04:09:00,73.0,68.6,29.67,ESE,103,0.0,0.0,86,0.00,,,0.00,VWS V14.01,2014-10-02 09:09:00,
2014-10-02 04:14:00,72.9,68.8,29.67,South,180,0.0,0.0,87,0.00,,,0.00,VWS V14.01,2014-10-02 09:14:00,
2014-10-02 04:19:00,72.9,68.5,29.68,South,179,0.0,0.0,86,0.00,,,0.00,VWS V14.01,2014-10-02 09:19:00,
2014-10-02 04:24:00,72.7,68.6,29.68,South,179,0.0,0.0,87,0.00,,,0.00,VWS V14.01,2014-10-02 09:24:00,
2014-10-02 04:29:00,72.7,68.6,29.68,SE,142,1.0,0.0,87,0.00,,,0.00,VWS V14.01,2014-10-02 09:29:00,
2014-10-02 04:34:00,72.7,68.6,29.69,SE,142,0.0,0.0,87,0.00,,,0.00,VWS V14.01,2014-10-02 09:34:00,
2014-10-02 04:39:00,72.7,68.6,29.69,SE,142,1.0,0.0,87,0.00,,,0.00,VWS V14.01,2014-10-02 09:39:00,
2014-10-02 04:44:00,72.6,68.8,29.69,SE,142,0.0,0.0,88,0.00,,,0.00,VWS V14.01,2014-10-02 09:44:00,
2014-10-02 04:49:00,72.5,68.8,29.69,SE,142,0.0,0.0,88,0.00,,,0.00,VWS V14.01,2014-10-02 09:49:00,
2014-10-02 04:54:00,72.5,68.8,29.69,East,86,0.0,0.0,88,0.00,,,0.00,VWS V14.01,2014-10-02 09:54:00,
2014-10-02 04:59:00,72.4,68.7,29.69,SE,145,0.0,0.0,88,0.00,,,0.00,VWS V14.01,2014-10-02 09:59:00,
2014-10-02 05:04:00,72.2,68.4,29.69,SE,146,0.0,0.0,88,0.00,,,0.00,VWS V14.01,2014-10-02 10:04:00,
2014-10-02 05:09:00,72.1,68.3,29.69,NE,55,0.0,0.0,88,0.00,,,0.00,VWS V14.01,2014-10-02 10:09:00,
2014-10-02 05:14:00,72.0,68.6,29.69,ENE,78,0.0,0.0,89,0.00,,,0.00,VWS V14.01,2014-10-02 10:14:00,
2014-10-02 05:19:00,72.0,68.6,29.70,East,98,0.0,0.0,89,0.00,,,0.00,VWS V14.01,2014-10-02 10:19:00,
2014-10-02 05:24:00,71.9,68.5,29.70,East,98,0.0,0.0,89,0.00,,,0.00,VWS V14.01,2014-10-02 10:24:00,
2014-10-02 05:29:00,71.8,68.4,29.70,East,98,0.0,0.0,89,0.00,,,0.00,VWS V14.01,2014-10-02 10:29:00,
2014-10-02 05:34:00,71.7,68.3,29.71,East,98,0.0,0.0,89,0.00,,,0.00,VWS V14.01,2014-10-02 10:34:00,
2014-10-02 05:39:00,71.5,68.1,29.71,East,98,0.0,0.0,89,0.00,,,0.00,VWS V14.01,2014-10-02 10:39:00,
2014-10-02 05:44:00,71.3,68.2,29.71,East,98,0.0,0.0,90,0.00,,,0.00,VWS V14.01,2014-10-02 10:44:00,
2014-10-02 05:49:00,71.1,68.3,29.72,East,98,0.0,0.0,91,0.00,,,0.00,VWS V14.01,2014-10-02 10:49:00,
2014-10-02 05:54:00,71.1,68.3,29.72,East,98,0.0,0.0,91,0.00,,,0.00,VWS V14.01,2014-10-02 10:54:00,
2014-10-02 05:59:00,71.2,68.4,29.72,East,98,0.0,0.0,91,0.00,,,0.00,VWS V14.01,2014-10-02 10:59:00,
2014-10-02 06:04:00,71.2,68.4,29.72,East,98,0.0,0.0,91,0.00,,,0.00,VWS V14.01,2014-10-02 11:04:00,
2014-10-02 06:09:00,71.1,68.3,29.72,East,98,0.0,0.0,91,0.00,,,0.00,VWS V14.01,2014-10-02 11:09:00,
2014-10-02 06:14:00,71.1,68.7,29.72,East,98,0.0,0.0,92,0.00,,,0.00,VWS V14.01,2014-10-02 11:14:00,
2014-10-02 06:19:00,71.2,68.8,29.73,East,98,0.0,0.0,92,0.00,,,0.00,VWS V14.01,2014-10-02 11:19:00,
2014-10-02 06:24:00,71.2,68.8,29.73,East,98,0.0,0.0,92,0.00,,,0.00,VWS V14.01,2014-10-02 11:24:00,
2014-10-02 06:29:00,71.9,69.4,29.73,East,98,0.0,0.0,92,0.00,,,0.00,VWS V14.01,2014-10-02 11:29:00,
2014-10-02 06:34:00,72.4,69.6,29.73,East,98,0.0,0.0,91,0.00,,,0.00,VWS V14.01,2014-10-02 11:34:00,
2014-10-02 06:39:00,72.6,69.5,29.73,East,98,0.0,0.0,90,0.00,,,0.00,VWS V14.01,2014-10-02 11:39:00,
2014-10-02 06:44:00,72.8,69.7,29.73,East,98,0.0,0.0,90,0.00,,,0.00,VWS V14.01,2014-10-02 11:44:00,
2014-10-02 06:49:00,72.8,69.7,29.73,East,98,0.0,0.0,90,0.00,,,0.00,VWS V14.01,2014-10-02 11:49:00,
2014-10-02 06:54:00,72.9,69.8,29.73,East,98,0.0,0.0,90,0.00,,,0.00,VWS V14.01,2014-10-02 11:54:00,
2014-10-02 06:59:00,72.9,69.8,29.73,East,98,0.0,0.0,90,0.00,,,0.00,VWS V14.01,2014-10-02 11:59:00,
2014-10-02 07:04:00,72.8,69.7,29.73,East,98,0.0,0.0,90,0.00,,,0.00,VWS V14.01,2014-10-02 12:04:00,
2014-10-02 07:09:00,72.7,69.6,29.73,East,98,0.0,0.0,90,0.00,,,0.00,VWS V14.01,2014-10-02 12:09:00,
2014-10-02 07:14:00,72.5,69.4,29.73,East,98,0.0,0.0,90,0.00,,,0.00,VWS V14.01,2014-10-02 12:14:00,
2014-10-02 07:19:00,72.5,69.4,29.74,East,98,0.0,0.0,90,0.00,,,0.00,VWS V14.01,2014-10-02 12:19:00,
2014-10-02 07:24:00,72.6,69.5,29.74,East,98,0.0,0.0,90,0.00,,,0.00,VWS V14.01,2014-10-02 12:24:00,
2014-10-02 07:29:00,72.8,69.7,29.74,East,98,0.0,0.0,90,0.00,,,0.00,VWS V14.01,2014-10-02 12:29:00,
2014-10-02 07:34:00,72.9,69.8,29.74,East,98,0.0,0.0,90,0.00,,,0.00,VWS V14.01,2014-10-02 12:34:00,
2014-10-02 07:39:00,72.8,69.7,29.74,East,98,0.0,0.0,90,0.00,,,0.00,VWS V14.01,2014-10-02 12:39:00,
2014-10-02 07:44:00,72.8,69.7,29.74,East,98,1.0,0.0,90,0.00,,,0.00,VWS V14.01,2014-10-02 12:44:00,
2014-10-02 07:49:00,72.9,69.8,29.75,East,98,0.0,0.0,90,0.00,,,0.00,VWS V14.01,2014-10-02 12:49:00,
2014-10-02 07:54:00,73.0,69.9,29.75,East,98,0.0,0.0,90,0.00,,,0.00,VWS V14.01,2014-10-02 12:54:00,
2014-10-02 07:59:00,73.2,70.1,29.75,East,98,0.0,0.0,90,0.00,,,0.00,VWS V14.01,2014-10-02 12:59:00,
2014-10-02 08:04:00,73.4,70.3,29.74,SSW,213,0.0,0.0,90,0.00,,,0.00,VWS V14.01,2014-10-02 13:04:00,
2014-10-02 08:09:00,73.5,70.1,29.74,SSW,213,0.0,0.0,89,0.00,,,0.00,VWS V14.01,2014-10-02 13:09:00,
2014-10-02 08:14:00,73.5,70.1,29.74,SSW,211,0.0,0.0,89,0.00,,,0.00,VWS V14.01,2014-10-02 13:14:00,
2014-10-02 08:19:00,73.7,70.3,29.75,SSW,211,0.0,0.0,89,0.00,,,0.00,VWS V14.01,2014-10-02 13:19:00,
2014-10-02 08:24:00,73.7,70.3,29.75,SSW,211,0.0,0.0,89,0.00,,,0.00,VWS V14.01,2014-10-02 13:24:00,
2014-10-02 08:29:00,73.8,70.4,29.75,SSW,211,0.0,0.0,89,0.00,,,0.00,VWS V14.01,2014-10-02 13:29:00,
2014-10-02 08:34:00,73.9,70.5,29.74,SSW,211,0.0,0.0,89,0.00,,,0.00,VWS V14.01,2014-10-02 13:34:00,
2014-10-02 08:39:00,74.0,70.6,29.74,SSW,211,0.0,0.0,89,0.00,,,0.00,VWS V14.01,2014-10-02 13:39:00,
2014-10-02 08:44:00,74.0,70.6,29.74,SSW,211,0.0,0.0,89,0.00,,,0.00,VWS V14.01,2014-10-02 13:44:00,
2014-10-02 08:49:00,74.0,70.6,29.73,South,190,0.0,0.0,89,0.00,,,0.00,VWS V14.01,2014-10-02 13:49:00,
2014-10-02 08:54:00,74.1,70.7,29.73,South,190,0.0,0.0,89,0.00,,,0.00,VWS V14.01,2014-10-02 13:54:00,
2014-10-02 08:59:00,74.2,70.8,29.73,South,188,0.0,0.0,89,0.00,,,0.00,VWS V14.01,2014-10-02 13:59:00,
2014-10-02 09:04:00,74.4,70.6,29.72,SSE,161,0.0,0.0,88,0.00,,,0.00,VWS V14.01,2014-10-02 14:04:00,
2014-10-02 09:09:00,74.7,70.9,29.72,ESE,107,0.0,0.0,88,0.00,,,0.00,VWS V14.01,2014-10-02 14:09:00,